FW9075 Weather Reports


time (UTC)temp
C
wind
direction
speed
KPH
gust
KPH
rain 1hr
cm
rain 24hr
cm
rain mn
cm
humidity
%
barometer
mb
20260502161005 13 94 1.6 12.9 0.00 0.41 0.41 90 1011.5
20260502160505 13 97 1.6 9.7 0.00 0.41 0.41 90 1011.5
20260502152005 13 84 1.6 9.7 0.18 0.41 0.41 91 1012.0
20260502151506 13 70 1.6 8.0 0.23 0.41 0.41 91 1012.1
20260502150506 13 55 1.6 4.8 0.28 0.41 0.41 91 1012.1
20260502130505 20 96 6.4 16.1 0.00 0.00 0.00 59 1013.2
20260502123505 21 103 3.2 11.3 0.00 0.00 0.00 57 1013.6
20260502122505 21 136 6.4 14.5 0.00 0.00 0.00 57 1013.8
20260502122005 21 121 6.4 14.5 0.00 0.00 0.00 58 1013.9
20260502121505 21 92 6.4 12.9 0.00 0.00 0.00 57 1014.0
20260502120505 21 135 6.4 12.9 0.00 0.00 0.00 55 1014.2
20260502115505 21 154 3.2 11.3 0.00 0.00 0.00 55 1014.4
20260502115005 21 145 3.2 11.3 0.00 0.00 0.00 55 1014.4
20260502114005 21 65 6.4 12.9 0.00 0.00 0.00 58 1014.4
20260502113505 20 81 8.0 14.5 0.00 0.00 0.00 59 1014.5
20260502113005 20 91 3.2 14.5 0.00 0.00 0.00 58 1014.5
20260502112006 20 72 3.2 11.3 0.00 0.00 0.00 57 1014.6
20260502111506 20 59 3.2 11.3 0.00 0.00 0.00 60 1014.7
20260502111005 20 91 3.2 11.3 0.00 0.00 0.00 61 1014.8
20260502110505 20 155 3.2 11.3 0.00 0.00 0.00 62 1014.9
20260502110006 19 125 3.2 11.3 0.00 0.00 0.00 62 1015.1
20260502105505 18 47 3.2 9.7 0.00 0.00 0.00 62 1015.1
20260502105005 18 65 1.6 9.7 0.00 0.00 0.00 63 1015.2
20260502104505 18 113 1.6 4.8 0.00 0.00 0.00 65 1015.3
20260502103505 18 34 1.6 8.0 0.00 0.00 0.00 68 1015.6
20260502103006 18 78 3.2 9.7 0.00 0.00 0.00 68 1015.6
20260502102505 17 106 3.2 11.3 0.00 0.00 0.00 69 1015.7
20260502102006 17 99 3.2 11.3 0.00 0.00 0.00 70 1015.8
20260502101506 17 83 3.2 9.7 0.00 0.00 0.00 70 1015.9
20260502101005 17 90 1.6 9.7 0.00 0.00 0.00 70 1016.0
20260502100505 17 150 1.6 9.7 0.00 0.00 0.00 73 1016.0
20260502091505 14 70 3.2 9.7 0.00 0.00 0.00 82 1016.5
20260502091005 14 115 1.6 8.0 0.00 0.00 0.00 83 1016.6
20260502090505 13 134 1.6 8.0 0.00 0.00 0.00 83 1016.6
20260502071506 10 0 0.0 3.2 0.00 0.00 0.00 95 1017.5
20260502071006 10 98 1.6 3.2 0.00 0.00 0.00 95 1017.5
20260502070505 10 90 1.6 3.2 0.00 0.00 0.00 96 1017.6
20260502070005 9 75 1.6 4.8 0.00 0.00 0.00 95 1017.5
20260502065505 9 63 1.6 4.8 0.00 0.00 0.00 95 1017.4
20260502064505 9 35 1.6 3.2 0.00 0.00 0.00 95 1017.3
20260502064005 9 43 1.6 3.2 0.00 0.00 0.00 96 1017.3
20260502063505 9 48 1.6 4.8 0.00 0.00 0.00 96 1017.3
20260502063005 9 0 0.0 4.8 0.00 0.00 0.00 95 1017.4
20260502062505 9 0 0.0 3.2 0.00 0.00 0.00 95 1017.4
20260502061505 9 0 0.0 4.8 0.00 0.00 0.00 96 1017.4
20260502060505 9 0 0.0 3.2 0.00 0.00 0.00 96 1017.5
20260502055505 9 0 0.0 3.2 0.00 0.00 0.00 96 1017.5
20260502055005 9 0 0.0 3.2 0.00 0.00 0.00 96 1017.5
20260502054505 9 127 1.6 3.2 0.00 0.00 0.00 96 1017.5
20260502054005 9 0 0.0 3.2 0.00 0.00 0.00 96 1017.5
20260502053005 9 0 0.0 3.2 0.00 0.00 0.00 96 1017.4
20260502052505 9 0 0.0 3.2 0.00 0.00 0.00 96 1017.5
20260502052005 9 179 1.6 4.8 0.00 0.00 0.00 96 1017.5
20260502051505 8 170 1.6 4.8 0.00 0.00 0.00 95 1017.5
20260502051005 9 143 1.6 4.8 0.00 0.00 0.00 95 1017.5
20260502050505 9 122 1.6 4.8 0.00 0.00 0.00 95 1017.5
20260502045505 9 0 0.0 1.6 0.00 0.00 0.00 96 1017.4
20260502045005 9 0 0.0 1.6 0.00 0.00 0.00 96 1017.6
20260502044505 9 0 0.0 1.6 0.00 0.00 0.00 95 1017.5
20260502044005 9 0 0.0 1.6 0.00 0.00 0.00 95 1017.5
20260502043005 8 0 0.0 1.6 0.00 0.00 0.00 95 1017.5
20260502042505 8 0 0.0 3.2 0.00 0.00 0.00 95 1017.5
20260502042005 9 0 0.0 3.2 0.00 0.00 0.00 95 1017.6
20260502041505 9 0 0.0 1.6 0.00 0.00 0.00 95 1017.5
20260502041005 9 0 0.0 1.6 0.00 0.00 0.00 95 1017.6
20260502040005 9 0 0.0 3.2 0.00 0.00 0.00 95 1017.6
20260502034505 9 0 0.0 3.2 0.00 0.00 0.00 95 1017.6
20260502034005 9 0 0.0 3.2 0.00 0.00 0.00 95 1017.6
20260502033505 9 0 0.0 3.2 0.00 0.00 0.00 95 1017.7
20260502033005 9 0 0.0 3.2 0.00 0.00 0.00 95 1017.7
20260502032005 9 0 0.0 3.2 0.00 0.00 0.00 95 1017.9
20260502031505 9 0 0.0 4.8 0.00 0.00 0.00 95 1017.9
20260502031005 9 236 1.6 4.8 0.00 0.00 0.00 95 1017.9
20260502030506 9 236 1.6 8.0 0.00 0.00 0.00 95 1018.0
20260502030005 9 236 3.2 8.0 0.00 0.00 0.00 95 1018.0
20260502025505 10 242 3.2 9.7 0.00 0.00 0.00 95 1018.0
20260502025005 10 248 3.2 9.7 0.00 0.00 0.00 95 1018.0
20260502024005 10 242 6.4 12.9 0.00 0.00 0.00 94 1018.2
20260502023506 10 234 6.4 12.9 0.00 0.00 0.00 94 1018.2
20260502023005 10 237 6.4 12.9 0.00 0.00 0.00 94 1018.1
20260502022505 10 253 1.6 11.3 0.00 0.00 0.00 94 1018.2
20260502021505 10 249 1.6 8.0 0.00 0.00 0.00 95 1018.3
20260502021005 10 255 1.6 4.8 0.00 0.00 0.00 95 1018.3
20260502020505 10 0 0.0 1.6 0.00 0.00 0.00 94 1018.1
20260502015505 10 236 1.6 3.2 0.00 0.00 0.00 94 1018.3
20260502015005 10 0 0.0 3.2 0.00 0.00 0.00 94 1018.4
20260502014505 10 0 0.0 3.2 0.00 0.00 0.00 94 1018.3
20260502014005 10 0 0.0 1.6 0.00 0.00 0.00 93 1018.3
20260502013506 10 0 0.0 1.6 0.00 0.00 0.00 93 1018.4
20260502013005 10 0 0.0 1.6 0.00 0.00 0.00 93 1018.4
20260502012507 10 0 0.0 1.6 0.00 0.00 0.00 93 1018.4
20260502011505 10 0 0.0 3.2 0.00 0.00 0.00 93 1018.5
20260502011005 10 236 1.6 4.8 0.00 0.00 0.00 93 1018.5
20260502010505 10 244 1.6 4.8 0.00 0.00 0.00 93 1018.6
20260502010005 10 252 1.6 4.8 0.00 0.00 0.00 93 1018.7
20260502005505 10 237 3.2 9.7 0.00 0.00 0.00 93 1018.7
20260502005006 10 235 3.2 11.3 0.00 0.00 0.00 93 1018.7
20260502004505 10 241 1.6 11.3 0.00 0.00 0.00 93 1018.8
20260502004005 10 232 3.2 11.3 0.00 0.00 0.00 93 1018.8
20260502003505 10 230 3.2 11.3 0.00 0.00 0.00 93 1018.8
20260502003005 10 246 1.6 8.0 0.00 0.00 0.00 93 1018.8
20260502002506 10 240 3.2 9.7 0.00 0.00 0.00 93 1018.9
20260502001006 10 226 3.2 9.7 0.00 0.00 0.00 93 1019.0
20260502000505 10 229 3.2 9.7 0.00 0.00 0.00 93 1019.0
20260502000005 10 241 6.4 9.7 0.00 0.00 0.00 93 1019.0
20260501235505 10 236 6.4 11.3 0.00 0.00 0.00 92 1018.9
20260501235005 10 222 6.4 11.3 0.00 0.00 0.00 92 1019.0
20260501234506 10 220 3.2 11.3 0.00 0.00 0.00 92 1019.0
20260501233506 10 219 3.2 11.3 0.00 0.00 0.00 92 1019.2
20260501233013 10 226 3.2 9.7 0.00 0.00 0.00 92 1019.2
20260501232505 10 246 3.2 9.7 0.00 0.00 0.00 91 1019.1
20260501232005 11 251 3.2 12.9 0.00 0.00 0.00 91 1019.2
20260501231505 11 237 3.2 12.9 0.00 0.00 0.00 91 1019.3
20260501231006 11 230 1.6 4.8 0.00 0.00 0.00 90 1019.3
20260501230007 11 230 1.6 8.0 0.00 0.00 0.00 90 1019.4
20260501225505 11 233 3.2 8.0 0.00 0.00 0.00 89 1019.4
20260501224505 11 216 1.6 8.0 0.00 0.00 0.00 89 1019.4
20260501224005 11 186 1.6 8.0 0.00 0.00 0.00 89 1019.5
20260501223505 11 182 1.6 8.0 0.00 0.00 0.00 89 1019.4
20260501223005 11 187 1.6 4.8 0.00 0.00 0.00 89 1019.4
20260501222005 11 187 1.6 8.0 0.00 0.00 0.00 89 1019.3
20260501221505 11 193 1.6 8.0 0.00 0.00 0.00 88 1019.3
20260501221006 11 205 1.6 4.8 0.00 0.00 0.00 88 1019.3
20260501220505 11 223 1.6 4.8 0.00 0.00 0.00 88 1019.3
20260501220006 11 226 1.6 8.0 0.00 0.00 0.00 88 1019.3
20260501215505 11 230 1.6 8.0 0.00 0.00 0.00 87 1019.3
20260501215005 11 225 1.6 8.0 0.00 0.00 0.00 87 1019.3
20260501214505 12 221 1.6 8.0 0.00 0.00 0.00 87 1019.3
20260501214005 12 217 1.6 8.0 0.00 0.00 0.00 87 1019.3
20260501213505 12 194 1.6 8.0 0.00 0.00 0.00 87 1019.3
20260501213006 12 185 3.2 8.0 0.00 0.00 0.00 87 1019.3
20260501212505 12 189 1.6 8.0 0.00 0.00 0.00 86 1019.2
20260501212005 12 220 1.6 9.7 0.00 0.00 0.00 86 1019.2
20260501211505 12 229 1.6 9.7 0.00 0.00 0.00 86 1019.2
20260501210505 12 223 1.6 4.8 0.00 0.00 0.00 86 1019.2
20260501210006 12 209 1.6 4.8 0.00 0.00 0.00 86 1019.2
20260501205005 12 191 3.2 9.7 0.00 0.00 0.00 86 1019.2
20260501204505 12 190 3.2 8.0 0.00 0.00 0.00 86 1019.2
20260501204005 12 203 1.6 8.0 0.00 0.00 0.00 86 1019.2
20260501203505 12 219 1.6 8.0 0.00 0.00 0.00 86 1019.1
20260501203005 12 227 1.6 8.0 0.00 0.00 0.00 85 1019.2
20260501202505 12 231 3.2 11.3 0.00 0.00 0.00 85 1019.2
20260501202005 12 230 6.4 11.3 0.00 0.00 0.00 84 1019.1
20260501201005 12 214 1.6 11.3 0.00 0.00 0.00 84 1019.0
20260501200506 12 209 1.6 8.0 0.00 0.00 0.00 84 1019.0
20260501200005 13 233 1.6 9.7 0.00 0.00 0.00 84 1018.9
20260501195005 13 230 1.6 8.0 0.00 0.00 0.00 83 1018.9
20260501194506 13 236 1.6 4.8 0.00 0.00 0.00 82 1018.8
20260501193505 13 243 3.2 9.7 0.00 0.00 0.00 82 1018.7
20260501192505 13 239 3.2 9.7 0.00 0.00 0.00 80 1018.7
20260501192005 14 242 6.4 11.3 0.00 0.00 0.00 80 1018.6
20260501191505 14 240 6.4 12.9 0.00 0.00 0.00 79 1018.6
20260501191005 14 238 6.4 12.9 0.00 0.00 0.00 78 1018.7
20260501190505 15 239 8.0 16.1 0.00 0.00 0.00 77 1018.7
20260501190006 15 236 8.0 16.1 0.00 0.00 0.00 76 1018.6
20260501185505 15 233 9.7 16.1 0.00 0.00 0.00 75 1018.5
20260501185005 15 234 9.7 17.7 0.00 0.00 0.00 74 1018.5
20260501184506 15 238 8.0 17.7 0.00 0.00 0.00 73 1018.4
20260501184005 16 241 8.0 12.9 0.00 0.00 0.00 72 1018.4
20260501183505 16 239 6.4 12.9 0.00 0.00 0.00 71 1018.3
20260501183005 16 234 6.4 11.3 0.00 0.00 0.00 70 1018.3
20260501182505 16 237 6.4 11.3 0.00 0.00 0.00 69 1018.3
20260501182005 16 236 8.0 14.5 0.00 0.00 0.00 68 1018.3
20260501181505 17 231 8.0 14.5 0.00 0.00 0.00 67 1018.3
20260501181006 17 232 8.0 14.5 0.00 0.00 0.00 65 1018.3
20260501180505 17 240 6.4 14.5 0.00 0.00 0.00 64 1018.3
20260501180005 18 245 6.4 12.9 0.00 0.00 0.00 62 1018.3
20260501175505 18 236 8.0 14.5 0.00 0.00 0.00 61 1018.2
20260501175005 18 217 6.4 14.5 0.00 0.00 0.00 61 1018.2
20260501174505 18 221 6.4 12.9 0.00 0.00 0.00 61 1018.2
20260501173506 19 222 6.4 17.7 0.00 0.00 0.00 60 1018.3
20260501173005 18 209 6.4 12.9 0.00 0.00 0.00 60 1018.3
20260501172505 18 219 8.0 16.1 0.00 0.00 0.00 60 1018.4
20260501172006 18 215 8.0 16.1 0.00 0.00 0.00 59 1018.4
20260501171505 18 211 9.7 17.7 0.00 0.00 0.00 58 1018.4
20260501171005 18 223 9.7 17.7 0.00 0.00 0.00 58 1018.4
20260501170005 18 194 8.0 20.9 0.00 0.00 0.00 59 1018.5
20260501165505 18 187 8.0 17.7 0.00 0.00 0.00 64 1018.6
20260501165005 18 172 9.7 17.7 0.00 0.00 0.00 65 1018.5
20260501164505 19 168 9.7 17.7 0.00 0.00 0.00 64 1018.6
20260501163505 19 181 9.7 22.5 0.00 0.00 0.00 64 1018.5
20260501163005 18 184 9.7 22.5 0.00 0.00 0.00 64 1018.4
20260501162505 19 192 9.7 20.9 0.00 0.00 0.00 63 1018.5
20260501161505 20 187 8.0 14.5 0.00 0.00 0.00 62 1018.4